| time (UTC) | temp C | wind direction | speed KPH | gust KPH | rain 1hr cm | rain 24hr cm | rain mn cm | humidity % | barometer mb |
| 20260906173516 | 23 | 94 | 1.6 | 9.7 | 0.00 | 0.00 | 0.00 | 86 | 1019.4 |
| 20260906172028 | 23 | 131 | 1.6 | 9.7 | 0.00 | 0.00 | 0.00 | 87 | 1019.5 |
| 20260906170519 | 23 | 149 | 1.6 | 11.3 | 0.00 | 0.00 | 0.00 | 86 | 1019.7 |
| 20260906165051 | 23 | 137 | 1.6 | 9.7 | 0.00 | 0.00 | 0.00 | 85 | 1020.0 |
| 20260906163523 | 25 | 166 | 1.6 | 11.3 | 0.00 | 0.00 | 0.00 | 81 | 1019.9 |
| 20260906162035 | 25 | 166 | 1.6 | 9.7 | 0.00 | 0.00 | 0.00 | 81 | 1019.8 |
| 20260906160527 | 25 | 118 | 1.6 | 12.9 | 0.00 | 0.00 | 0.00 | 82 | 1019.9 |
| 20260906155019 | 26 | 131 | 1.6 | 9.7 | 0.00 | 0.00 | 0.00 | 81 | 1020.0 |
| 20260906153531 | 26 | 163 | 1.6 | 9.7 | 0.00 | 0.00 | 0.00 | 81 | 1020.0 |
| 20260906152023 | 26 | 130 | 1.6 | 9.7 | 0.00 | 0.00 | 0.00 | 81 | 1020.0 |
| 20260906150516 | 24 | 115 | 1.6 | 9.7 | 0.00 | 0.00 | 0.00 | 84 | 1020.0 |
| 20260906145028 | 24 | 153 | 1.6 | 11.3 | 0.00 | 0.00 | 0.00 | 86 | 1020.0 |
| 20260906143521 | 23 | 162 | 0.0 | 3.2 | 0.00 | 0.00 | 0.00 | 87 | 1019.9 |
| 20260906142034 | 23 | 128 | 1.6 | 9.7 | 0.00 | 0.00 | 0.00 | 87 | 1020.0 |
| 20260906140525 | 23 | 144 | 0.0 | 3.2 | 0.00 | 0.00 | 0.00 | 89 | 1019.8 |
| 20260906135017 | 22 | 117 | 0.0 | 3.2 | 0.00 | 0.00 | 0.00 | 92 | 1019.9 |
| 20260906133529 | 22 | 0.0 | 0.0 | 0.00 | 0.00 | 0.00 | 92 | 1019.7 | |
| 20260906132022 | 21 | 147 | 0.0 | 4.8 | 0.00 | 0.00 | 0.00 | 94 | 1019.6 |
| 20260906130534 | 21 | 0.0 | 0.0 | 0.00 | 0.00 | 0.00 | 96 | 1019.4 | |
| 20260906125025 | 21 | 0.0 | 0.0 | 0.00 | 0.00 | 0.00 | 96 | 1019.5 | |
| 20260906123517 | 20 | 0.0 | 0.0 | 0.00 | 0.00 | 0.00 | 99 | 1019.7 | |
| 20260906122029 | 19 | 0.0 | 0.0 | 0.00 | 0.00 | 0.00 | 99 | 1019.4 | |
| 20260906120521 | 18 | 0.0 | 0.0 | 0.00 | 0.00 | 0.00 | 99 | 1019.4 | |
| 20260906115033 | 18 | 0.0 | 0.0 | 0.00 | 0.00 | 0.00 | 99 | 1019.3 | |
| 20260906113525 | 18 | 0.0 | 0.0 | 0.00 | 0.00 | 0.00 | 99 | 1019.2 | |
| 20260906112017 | 19 | 0.0 | 0.0 | 0.00 | 0.00 | 0.00 | 99 | 1019.1 | |
| 20260906110529 | 18 | 0.0 | 0.0 | 0.00 | 0.00 | 0.00 | 99 | 1019.2 | |
| 20260906105022 | 19 | 0.0 | 0.0 | 0.00 | 0.00 | 0.00 | 99 | 1019.1 | |
| 20260906103534 | 18 | 0.0 | 0.0 | 0.00 | 0.00 | 0.00 | 99 | 1019.0 | |
| 20260906102026 | 19 | 0.0 | 0.0 | 0.00 | 0.00 | 0.00 | 99 | 1018.8 | |
| 20260906100517 | 19 | 0.0 | 0.0 | 0.00 | 0.00 | 0.00 | 99 | 1018.7 | |
| 20260906095030 | 19 | 0.0 | 0.0 | 0.00 | 0.00 | 0.00 | 98 | 1018.8 | |
| 20260906093521 | 19 | 0.0 | 0.0 | 0.00 | 0.00 | 0.00 | 98 | 1018.6 | |
| 20260906092033 | 20 | 0.0 | 0.0 | 0.00 | 0.00 | 0.00 | 97 | 1018.5 | |
| 20260906090525 | 20 | 0.0 | 0.0 | 0.00 | 0.00 | 0.00 | 97 | 1018.3 | |
| 20260906085038 | 20 | 0.0 | 0.0 | 0.00 | 0.00 | 0.00 | 96 | 1018.4 | |
| 20260906083530 | 20 | 0.0 | 0.0 | 0.00 | 0.00 | 0.00 | 96 | 1018.3 | |
| 20260906082022 | 21 | 0.0 | 0.0 | 0.00 | 0.00 | 0.00 | 96 | 1018.1 | |
| 20260906080535 | 20 | 0.0 | 0.0 | 0.00 | 0.00 | 0.00 | 97 | 1018.1 | |
| 20260906075026 | 20 | 0.0 | 0.0 | 0.00 | 0.00 | 0.00 | 96 | 1017.9 | |
| 20260906073518 | 21 | 0.0 | 0.0 | 0.00 | 0.00 | 0.00 | 96 | 1018.0 | |
| 20260906072031 | 21 | 0.0 | 0.0 | 0.00 | 0.00 | 0.00 | 96 | 1018.2 | |
| 20260906070522 | 21 | 0.0 | 0.0 | 0.00 | 0.00 | 0.00 | 95 | 1018.5 | |
| 20260906065034 | 21 | 0.0 | 0.0 | 0.00 | 0.00 | 0.00 | 95 | 1018.4 | |
| 20260906063526 | 21 | 0.0 | 0.0 | 0.00 | 0.00 | 0.00 | 96 | 1018.6 | |
| 20260906062018 | 21 | 0.0 | 0.0 | 0.00 | 0.00 | 0.00 | 97 | 1018.5 | |
| 20260906060530 | 21 | 0.0 | 0.0 | 0.00 | 0.00 | 0.00 | 96 | 1018.6 | |
| 20260906055022 | 21 | 0.0 | 0.0 | 0.00 | 0.00 | 0.00 | 96 | 1018.5 | |
| 20260906053535 | 21 | 0.0 | 0.0 | 0.00 | 0.00 | 0.00 | 95 | 1018.5 | |
| 20260906052027 | 21 | 0.0 | 0.0 | 0.00 | 0.00 | 0.00 | 95 | 1018.5 | |
| 20260906050539 | 21 | 0.0 | 0.0 | 0.00 | 0.00 | 0.00 | 94 | 1018.6 | |
| 20260906045031 | 22 | 0.0 | 0.0 | 0.00 | 0.00 | 0.00 | 93 | 1018.8 | |
| 20260906043523 | 22 | 0.0 | 0.0 | 0.00 | 0.00 | 0.00 | 93 | 1018.8 | |
| 20260906042035 | 22 | 0.0 | 0.0 | 0.00 | 0.00 | 0.00 | 92 | 1018.8 | |
| 20260906040547 | 22 | 0.0 | 0.0 | 0.00 | 0.00 | 0.00 | 92 | 1018.9 | |
| 20260906035019 | 22 | 0.0 | 0.0 | 0.00 | 0.00 | 0.00 | 92 | 1018.8 | |
| 20260906033552 | 22 | 0.0 | 0.0 | 0.00 | 0.00 | 0.00 | 91 | 1018.9 | |
| 20260906032024 | 22 | 0.0 | 0.0 | 0.00 | 0.00 | 0.00 | 90 | 1018.9 | |
| 20260906030516 | 23 | 0.0 | 0.0 | 0.00 | 0.00 | 0.00 | 90 | 1018.9 | |
| 20260906025052 | 23 | 0.0 | 0.0 | 0.00 | 0.00 | 0.00 | 88 | 1018.7 | |
| 20260906023521 | 23 | 0.0 | 0.0 | 0.00 | 0.00 | 0.00 | 87 | 1019.0 | |
| 20260906022034 | 23 | 0.0 | 0.0 | 0.00 | 0.00 | 0.00 | 87 | 1018.9 | |
| 20260906020546 | 23 | 0.0 | 0.0 | 0.00 | 0.00 | 0.00 | 88 | 1018.4 | |
| 20260906015038 | 23 | 0.0 | 0.0 | 0.00 | 0.00 | 0.00 | 86 | 1017.9 | |
| 20260906014514 | 23 | 0.0 | 0.0 | 0.00 | 0.00 | 0.00 | 85 | 1016.4 | |
| 20260906013530 | 23 | 0.0 | 0.0 | 0.00 | 0.00 | 0.00 | 85 | 1017.4 | |
| 20260906012023 | 24 | 0.0 | 0.0 | 0.00 | 0.00 | 0.00 | 83 | 1017.0 | |
| 20260906010535 | 25 | 0.0 | 0.0 | 0.00 | 0.00 | 0.00 | 81 | 1016.7 | |
| 20260906005027 | 25 | 0.0 | 0.0 | 0.00 | 0.00 | 0.00 | 79 | 1016.5 | |
| 20260906003519 | 26 | 0.0 | 0.0 | 0.00 | 0.00 | 0.00 | 75 | 1016.3 | |
| 20260906002111 | 27 | 0.0 | 0.0 | 0.00 | 0.00 | 0.00 | 71 | 1016.3 | |
| 20260906000523 | 27 | 0.0 | 0.0 | 0.00 | 0.00 | 0.00 | 70 | 1016.2 | |
| 20260905235035 | 28 | 0.0 | 0.0 | 0.00 | 0.00 | 0.00 | 68 | 1016.1 | |
| 20260905233529 | 28 | 0.0 | 0.0 | 0.00 | 0.00 | 0.00 | 67 | 1016.2 | |
| 20260905232019 | 28 | 32 | 0.0 | 1.6 | 0.00 | 0.00 | 0.00 | 66 | 1016.3 |
| 20260905230551 | 28 | 82 | 0.0 | 9.7 | 0.00 | 0.00 | 0.00 | 66 | 1016.1 |
| 20260905225022 | 28 | 0.0 | 0.0 | 0.00 | 0.00 | 0.00 | 67 | 1016.0 | |
| 20260905223533 | 28 | 48 | 1.6 | 16.1 | 0.00 | 0.00 | 0.00 | 66 | 1015.7 |
| 20260905222024 | 28 | 55 | 1.6 | 6.4 | 0.00 | 0.00 | 0.00 | 67 | 1015.9 |
| 20260905220536 | 28 | 61 | 3.2 | 12.9 | 0.00 | 0.00 | 0.00 | 66 | 1015.5 |
| 20260905215026 | 29 | 92 | 0.0 | 6.4 | 0.00 | 0.00 | 0.00 | 67 | 1015.6 |
| 20260905213518 | 29 | 56 | 0.0 | 6.4 | 0.00 | 0.00 | 0.00 | 69 | 1015.8 |
| 20260905212029 | 28 | 70 | 1.6 | 6.4 | 0.00 | 0.00 | 0.00 | 70 | 1016.0 |
| 20260905210521 | 28 | 43 | 3.2 | 11.3 | 0.00 | 0.00 | 0.00 | 70 | 1016.2 |
| 20260905205033 | 28 | 127 | 0.0 | 9.7 | 0.00 | 0.00 | 0.00 | 73 | 1016.5 |
| 20260905203525 | 27 | 37 | 3.2 | 11.3 | 0.00 | 0.00 | 0.00 | 74 | 1016.8 |
| 20260905202017 | 27 | 54 | 1.6 | 11.3 | 0.00 | 0.00 | 0.00 | 75 | 1016.9 |
| 20260905200529 | 26 | 43 | 1.6 | 11.3 | 0.00 | 0.00 | 0.00 | 80 | 1017.2 |
| 20260905195021 | 26 | 60 | 0.0 | 9.7 | 0.00 | 0.00 | 0.00 | 82 | 1017.6 |
| 20260905193533 | 26 | 83 | 0.0 | 9.7 | 0.00 | 0.00 | 0.00 | 83 | 1017.6 |
| 20260905192025 | 26 | 0.0 | 0.0 | 0.00 | 0.00 | 0.00 | 82 | 1017.7 | |
| 20260905190556 | 25 | 83 | 0.0 | 6.4 | 0.00 | 0.00 | 0.00 | 85 | 1017.9 |
| 20260905185029 | 25 | 163 | 0.0 | 1.6 | 0.00 | 0.00 | 0.00 | 83 | 1018.2 |
| 20260905183520 | 23 | 176 | 0.0 | 1.6 | 0.00 | 0.00 | 0.00 | 87 | 1018.3 |
| 20260905182033 | 22 | 0.0 | 0.0 | 0.00 | 0.00 | 0.00 | 90 | 1018.8 | |
| 20260905180525 | 22 | 0.0 | 0.0 | 0.00 | 0.00 | 0.00 | 90 | 1018.8 | |
| 20260905175018 | 22 | 61 | 0.0 | 1.6 | 0.00 | 0.00 | 0.00 | 92 | 1018.9 |